Location: Altleiningen
(49.5078°N, 8.0741°E)
Time: 03:11:15
(UTC+00:00)

COSMO-SKYMED 1 - Pass Details

Date: 03 March 2021
Orbit: 621 x 623 km, 97.9° (Epoch: 11 April)

Event Time Altitude Azimuth Distance (km) Brightness Sun altitude
Rises 17:43:34 0° 13° (NNE) 2,917 5.8 -5.6°
Reaches altitude 10° 17:45:47 10° 14° (NNE) 2,006 5.0 -6.0°
Maximum altitude 17:50:09 89° 87° (E) 630 2.6 -6.7°
Drops below altitude 10° 17:54:29 10° 195° (SSW) 1,988 5.4 -7.4°
Sets 17:56:40 0° 196° (SSW) 2,889 6.2 -7.7°
